SCP
-0 -0 -0 -1 -1 -1 -0 -0 -0 -0 -0 0 0 -0 -0 -0 -0 -0 -0 0 0 0 0 1 0 0 1 0 0 0 0 0 0 0 0 0 0 0 0 0 0 0 0
-0 -0 -0 -1 -1 -1 -0 -0 -0 -0 -0 -0 0 -0 -0 -0 -0 -0 0 0 0 0 0 1 1 1 1 1 0 0 0 0 0 0 0 0 0 0 0 0 0 0 0
-0 -0 -0 -1 -1 -1 -1 -1 -0 -0 -0 -0 0 -0 -0 -0 -0 -0 -0 0 0 0 1 1 2 2 2 1 1 0 0 0 0 0 0 0 0 0 -0 0 0 0 0
-0 -0 -0 -1 -1 -0 -0 -0 -0 -0 -0 -0 -0 -0 -0 -0 -0 -0 0 0 0 1 0 1 1 2 2 2 1 1 0 0 0 0 0 0 0 0 -0 -0 -0 0 -0
-0 0 -0 -0 -0 -0 0 0 -0 -0 -0 -0 -0 0 -0 -0 -0 0 0 1 0 0 0 0 0 0 0 0 0 0 0 0 1 0 0 0 0 0 0 -0 -0 -0 0
-0 0 0 0 -0 -0 -0 0 -0 -0 -0 0 0 0 0 0 0 0 0 0 0 0 0 0 0 0 0 0 0 0 0 0 0 0 0 0 0 0 0 0 0 0 -0
-0 0 0 -0 -0 -0 -0 0 -0 -0 -0 -0 0 0 0 0 1 0 0 0 0 0 0 0 0 0 0 0 0 0 0 0 0 0 0 0 0 0 0 0 0 0 -0
-0 -0 -0 -0 -1 -1 -0 -0 0 -0 0 0 0 1 1 1 1 0 0 0 0 0 0 0 0 0 0 0 0 0 0 0 0 0 0 0 0 0 0 0 0 0 0
-0 0 0 -1 -1 -1 -1 -1 0 0 0 0 1 1 1 1 0 0 0 0 0 0 0 0 0 0 0 0 0 0 0 0 0 0 0 0 0 0 0 0 0 0 0
0 1 1 0 -0 -1 -1 -1 0 0 1 2 2 2 1 0 0 0 0 0 0 0 0 0 0 0 0 0 0 0 0 0 0 0 0 0 0 0 0 0 0 0 0
0 1 1 0 0 0 0 0 1 2 3 4 2 1 0 0 0 0 0 0 0 0 0 0 0 0 0 0 0 0 0 0 0 0 0 0 0 0 0 0 0 0 0
0 0 0 1 1 1 -2 -2 3 4 4 3 2 1 0 0 0 0 0 0 0 0 0 0 0 0 0 0 0 0 0 0 0 0 0 0 0 0 0 0 0 0 0
0 0 0 0 0 1 1 2 4 3 4 2 1 0 0 0 0 0 0 0 0 0 0 0 0 0 0 0 0 0 0 0 0 0 0 0 0 0 0 0 0 0 0
0 0 0 0 1 1 3 4 5 5 2 1 0 0 0 0 0 0 0 0 0 0 0 0 0 0 0 0 0 0 0 0 0 0 0 0 0 0 0 0 0 0 0
1 0 0 0 1 0 1 6 5 2 0 0 0 0 0 0 0 0 0 0 0 0 0 0 0 0 0 0 0 0 0 0 0 0 0 0 0 0 0 0 0 0 0
0 1 0 0 0 1 1 4 2 0 0 0 0 0 0 0 0 0 0 0 0 0 0 0 0 0 0 0 0 0 0 0 0 0 0 0 0 0 0 0 0 0 0
0 1 1 1 1 1 2 1 1 0 0 0 0 0 0 0 0 0 0 0 0 0 0 0 0 0 0 0 0 0 0 0 0 0 0 0 0 0 0 0 0 0 0
0 0 1 1 1 1 1 2 1 0 0 0 0 0 0 0 0 0 0 0 0 0 0 0 0 0 0 0 0 0 0 0 0 0 0 0 0 0 -0 -0 0 0 0
0 0 0 0 1 1 1 1 1 0 0 0 0 0 0 0 0 0 0 0 0 0 0 0 0 0 0 0 0 0 0 0 0 0 0 0 -0 -0 -0 -0 0 0 0
0 0 0 1 2 1 1 1 0 0 0 0 0 0 0 0 0 0 0 0 0 0 0 0 0 0 0 0 0 0 0 0 0 0 -0 -0 0 -0 -0 0 0 0 0
1 0 0 1 1 1 2 1 1 0 0 0 0 0 0 0 0 0 0 0 0 0 0 0 0 0 0 0 0 0 0 0 0 0 -0 -0 -0 -0 -0 -0 -0 0 0
0 0 1 1 1 1 1 1 1 0 0 0 0 0 0 0 0 0 0 0 0 0 0 0 0 0 0 0 0 0 0 0 0 0 0 -0 -0 -0 -0 -0 -0 -0 -0
0 0 0 0 2 1 1 1 0 0 0 0 0 0 0 0 0 0 0 0 0 0 0 0 0 0 0 0 0 0 0 0 0 0 0 -0 -0 0 -0 -0 -0 -0 -0
0 0 0 0 0 1 1 1 0 0 0 0 0 0 0 0 0 0 0 0 0 0 0 0 0 0 0 0 0 0 0 0 0 0 0 0 0 0 0 -0 -0 -0 -0
0 0 0 0 0 0 1 1 0 0 0 0 0 0 0 0 0 0 0 0 0 0 0 0 0 0 0 0 0 -0 0 0 0 0 0 0 -0 0 -0 -0 -0 -0 -0
0 0 0 0 0 0 0 0 0 0 0 0 0 0 0 0 0 0 0 0 0 0 0 0 0 0 0 0 0 0 0 0 0 0 -0 0 -0 -0 -0 0 0 -0 -0
Wind_Speed_500mb
71 66 63 61 52 49 44 38 39 34 32 28 31 29 25 28 26 22 20 16 11 11 11 11 14 22 29 31 34 35 37 39 38 38 50 47 49 57 58 55 47 50 53
75 71 67 63 58 54 48 44 43 39 37 31 24 21 27 25 21 19 16 14 12 12 17 19 23 25 32 36 33 31 32 35 33 36 38 40 52 50 40 45 48 43 46
84 82 78 71 63 58 55 49 47 46 41 35 30 32 31 29 28 21 16 11 13 16 22 27 32 31 34 38 39 33 34 37 37 34 32 26 23 54 60 55 59 56 58
87 87 83 76 71 64 58 51 51 50 44 40 39 41 39 31 22 17 17 20 17 22 30 34 33 44 38 37 36 38 40 40 41 41 41 41 46 52 59 68 66 65 54
97 95 90 82 78 69 64 53 50 49 46 44 42 42 38 31 27 28 26 31 29 30 33 38 45 38 40 43 42 39 35 34 35 37 40 43 46 46 53 61 71 70 67
98 97 89 80 79 74 68 59 53 49 48 48 46 52 45 40 38 37 30 26 28 29 33 41 41 38 38 39 40 40 36 30 28 27 30 34 39 45 51 61 70 72 77
94 100 97 93 87 85 76 69 60 54 51 50 51 53 50 44 45 42 39 37 31 29 34 38 39 38 39 40 35 30 29 32 33 35 37 38 43 47 49 55 66 70 77
95 105 103 97 95 89 82 71 70 59 53 54 54 53 48 50 48 44 42 36 29 29 34 38 35 34 32 30 30 32 31 35 39 42 45 48 51 56 61 62 63 75 85
93 108 102 100 98 94 87 77 71 65 54 53 57 58 53 53 56 48 40 30 29 30 32 33 33 30 26 26 30 34 39 44 44 46 51 59 64 68 67 66 66 70 77
91 94 106 102 98 97 93 79 73 68 57 58 58 57 55 54 50 45 36 31 29 29 31 32 29 26 28 30 34 41 44 46 48 53 58 64 73 83 88 94 93 91 86
87 85 97 103 98 94 93 84 75 71 67 68 63 55 53 54 50 43 36 28 25 27 27 27 28 29 33 35 39 43 45 46 51 58 69 84 95 104 107 98 89 90 87
78 85 93 96 92 93 93 85 75 84 74 72 62 54 51 56 55 43 30 24 23 22 22 24 28 36 36 37 41 38 43 54 62 70 82 87 98 97 94 98 103 95 92
28 72 85 91 87 91 91 84 72 84 82 74 61 61 56 47 42 35 26 24 23 22 24 25 23 33 35 33 36 46 51 66 70 85 86 93 97 102 98 89 98 100 96
31 32 53 82 86 81 87 84 69 82 83 74 64 57 46 36 35 34 27 22 21 21 23 23 24 26 22 34 39 49 60 64 76 82 90 97 93 95 97 94 95 102 93
37 39 45 61 76 81 92 78 68 77 75 74 62 48 36 30 31 30 22 19 18 19 20 21 24 26 27 38 45 59 67 76 79 79 96 98 86 90 86 82 81 84 86
37 31 29 42 67 74 87 78 74 77 75 70 58 43 33 29 35 29 22 21 17 17 20 22 21 25 30 39 51 63 72 76 80 90 99 93 91 95 79 67 56 57 70
30 22 14 13 18 34 54 66 70 68 74 68 56 48 36 32 31 26 22 18 17 18 19 19 20 24 32 42 53 64 70 77 83 85 96 94 97 95 77 62 62 53 51
37 27 19 16 17 22 32 45 60 75 71 62 52 39 33 31 29 25 19 16 15 16 18 15 19 26 32 39 50 62 65 70 70 74 82 96 100 93 77 68 45 29 30
32 26 18 12 11 21 32 47 65 70 65 59 47 35 33 33 24 19 17 15 12 11 13 14 21 29 33 40 48 60 65 67 73 73 81 92 94 76 56 43 27 26 38
23 17 9 7 8 13 32 45 60 66 61 54 44 35 31 28 19 14 18 15 13 13 15 21 22 31 31 37 47 57 63 65 70 61 81 96 103 81 42 30 23 26 35
17 9 3 8 10 14 29 49 56 59 50 50 38 30 24 20 11 14 17 12 12 17 17 22 27 31 34 36 43 54 56 59 70 60 69 81 96 104 83 46 24 29 29
12 8 12 14 17 15 20 34 49 41 42 43 34 17 21 15 10 15 16 19 19 30 28 25 29 27 29 32 43 46 43 46 55 52 54 60 74 84 102 77 39 35 51
8 3 7 6 12 19 23 26 42 44 49 45 25 24 45 26 35 31 18 38 31 28 35 29 26 25 19 27 40 39 38 36 38 40 47 51 64 73 77 94 93 69 66
2 7 12 14 13 2 25 35 35 35 45 47 38 51 54 42 45 40 39 23 25 29 35 34 26 19 18 31 43 41 36 35 27 27 34 44 53 62 70 76 85 88 91
7 15 23 22 17 10 5 13 24 34 42 38 42 52 52 59 46 41 35 48 46 34 30 21 25 13 20 30 40 40 34 34 25 20 29 41 52 56 62 70 75 74 72
9 18 15 21 24 23 13 7 13 24 33 34 47 45 35 44 56 48 50 28 28 33 28 20 16 11 15 24 34 36 31 29 25 24 34 40 45 49 49 55 59 65 69
Wind_Direction_500mb
194 195 196 199 203 205 210 214 212 207 209 208 203 206 197 195 199 206 220 240 239 259 289 315 309 311 306 312 321 308 305 299 304 293 294 293 286 289 282 278 283 289 278
193 196 198 200 202 207 214 215 220 214 217 220 212 199 189 198 207 226 236 225 237 279 301 309 310 300 302 310 316 317 312 312 311 306 310 309 302 302 307 280 279 278 286
193 194 197 201 206 212 216 218 220 217 221 225 222 208 206 213 218 220 225 237 260 291 301 304 300 303 297 299 306 305 305 305 306 305 302 300 288 302 299 295 294 289 278
200 198 197 204 210 216 217 221 220 220 222 222 219 212 209 219 215 213 238 234 249 272 287 297 297 309 300 292 299 302 304 302 302 301 301 297 299 300 303 297 295 293 294
202 201 201 210 215 215 214 217 218 221 218 215 217 209 203 203 211 229 243 235 242 261 276 290 300 304 293 295 303 306 304 301 296 295 298 302 302 299 299 299 303 298 295
204 207 209 210 214 216 216 214 214 216 218 216 214 213 215 212 227 236 239 235 249 267 285 303 310 311 308 306 305 303 303 305 304 300 295 294 298 301 302 301 300 297 296
203 207 207 209 212 214 214 215 214 214 216 217 216 215 219 224 230 236 242 245 260 281 299 306 306 308 309 309 311 309 307 306 302 304 301 296 294 296 295 297 297 298 296
204 209 211 211 214 214 214 215 216 214 218 222 220 216 221 228 233 237 247 251 271 293 304 307 310 308 306 308 314 319 319 313 306 302 299 297 295 296 294 292 294 296 292
206 210 212 213 216 215 216 217 216 217 218 225 223 218 221 229 235 244 245 260 278 292 304 308 310 312 314 312 313 313 315 314 310 306 303 305 306 305 300 295 292 290 288
209 207 212 213 217 218 218 218 222 221 221 224 225 225 226 228 230 235 247 261 279 298 307 314 313 313 312 319 319 317 315 312 310 307 309 308 307 304 303 298 293 289 280
207 205 209 215 218 217 219 218 223 225 228 226 221 225 235 233 233 237 246 266 290 301 310 314 313 315 320 321 316 314 313 314 312 312 307 305 306 301 298 294 287 282 272
210 205 213 212 214 219 217 218 224 227 230 228 230 232 242 240 237 237 247 270 283 289 298 311 323 324 320 321 325 320 319 318 314 316 315 312 314 308 300 291 287 279 269
179 212 212 204 214 217 214 216 226 230 227 223 229 235 238 240 240 240 252 267 277 286 300 309 321 314 323 331 330 325 314 313 313 317 320 318 313 312 307 298 285 281 276
162 186 205 211 216 217 212 215 230 228 223 223 231 241 238 233 236 244 251 268 282 288 296 305 316 317 329 331 329 322 324 323 324 325 326 323 320 313 304 296 290 284 274
149 186 202 209 216 216 210 221 228 229 225 232 234 234 225 234 242 248 261 272 276 280 296 297 317 320 324 331 320 325 329 334 329 328 332 337 320 315 304 290 285 276 268
120 127 157 204 218 223 224 231 232 238 230 234 227 215 224 243 244 247 257 268 264 278 288 306 308 324 331 326 329 327 332 337 341 340 341 342 332 328 310 294 282 279 258
149 143 142 153 216 238 244 239 242 231 227 226 220 222 233 242 242 247 255 262 267 291 301 305 307 323 326 325 326 333 333 335 338 348 350 349 345 334 319 299 285 278 262
146 154 149 169 200 229 240 236 225 217 218 216 217 221 242 234 229 245 254 267 283 297 308 292 307 316 319 319 326 339 342 343 345 346 354 358 348 341 321 306 284 270 267
159 156 147 150 204 231 240 237 221 219 216 210 219 242 244 229 232 245 261 262 273 287 293 297 305 302 312 318 328 339 345 350 351 356 1 2 356 343 331 326 305 287 286
144 153 169 215 249 253 240 240 228 218 214 224 235 243 226 221 232 259 268 277 273 300 296 300 295 294 305 318 331 339 346 350 351 360 7 14 11 4 1 2 351 336 323
130 131 155 259 291 264 256 234 228 221 238 230 231 221 219 220 246 272 266 264 267 292 279 297 289 287 303 314 330 337 348 350 357 1 359 15 15 14 28 42 34 51 15
141 175 220 235 250 256 248 247 235 246 241 220 212 223 213 220 254 278 261 276 267 272 276 284 281 279 301 320 332 337 348 350 357 5 6 15 17 21 24 44 52 68 75
141 77 47 356 249 234 238 247 239 238 213 200 201 227 210 211 271 234 260 280 255 264 268 278 266 281 297 326 341 345 352 353 3 21 23 27 20 23 31 36 48 59 68
334 357 354 359 18 275 237 246 246 251 221 227 234 212 219 256 267 235 260 263 278 272 265 276 263 268 309 335 349 355 356 356 359 9 17 24 30 26 41 41 45 50 58
308 314 318 332 3 15 30 262 244 246 245 214 215 219 237 268 243 239 272 271 260 265 279 228 249 253 312 346 358 359 357 2 4 10 22 24 23 31 39 46 49 54 54
300 308 321 338 345 342 329 304 262 254 231 242 223 229 261 246 230 252 291 269 247 245 233 231 224 273 333 356 5 6 358 3 10 17 37 37 39 37 42 45 50 55 60
Wind_Speed_850mb
71 66 63 61 52 49 44 38 39 34 32 28 31 29 25 28 26 22 20 16 11 11 11 11 14 22 29 31 34 35 37 39 38 38 50 47 49 57 58 55 47 50 53
75 71 67 63 58 54 48 44 43 39 37 31 24 21 27 25 21 19 16 14 12 12 17 19 23 25 32 36 33 31 32 35 33 36 38 40 52 50 40 45 48 43 46
84 82 78 71 63 58 55 49 47 46 41 35 30 32 31 29 28 21 16 11 13 16 22 27 32 31 34 38 39 33 34 37 37 34 32 26 23 54 60 55 59 56 58
87 87 83 76 71 64 58 51 51 50 44 40 39 41 39 31 22 17 17 20 17 22 30 34 33 44 38 37 36 38 40 40 41 41 41 41 46 52 59 68 66 65 54
97 95 90 82 78 69 64 53 50 49 46 44 42 42 38 31 27 28 26 31 29 30 33 38 45 38 40 43 42 39 35 34 35 37 40 43 46 46 53 61 71 70 67
98 97 89 80 79 74 68 59 53 49 48 48 46 52 45 40 38 37 30 26 28 29 33 41 41 38 38 39 40 40 36 30 28 27 30 34 39 45 51 61 70 72 77
94 100 97 93 87 85 76 69 60 54 51 50 51 53 50 44 45 42 39 37 31 29 34 38 39 38 39 40 35 30 29 32 33 35 37 38 43 47 49 55 66 70 77
95 105 103 97 95 89 82 71 70 59 53 54 54 53 48 50 48 44 42 36 29 29 34 38 35 34 32 30 30 32 31 35 39 42 45 48 51 56 61 62 63 75 85
93 108 102 100 98 94 87 77 71 65 54 53 57 58 53 53 56 48 40 30 29 30 32 33 33 30 26 26 30 34 39 44 44 46 51 59 64 68 67 66 66 70 77
91 94 106 102 98 97 93 79 73 68 57 58 58 57 55 54 50 45 36 31 29 29 31 32 29 26 28 30 34 41 44 46 48 53 58 64 73 83 88 94 93 91 86
87 85 97 103 98 94 93 84 75 71 67 68 63 55 53 54 50 43 36 28 25 27 27 27 28 29 33 35 39 43 45 46 51 58 69 84 95 104 107 98 89 90 87
78 85 93 96 92 93 93 85 75 84 74 72 62 54 51 56 55 43 30 24 23 22 22 24 28 36 36 37 41 38 43 54 62 70 82 87 98 97 94 98 103 95 92
28 72 85 91 87 91 91 84 72 84 82 74 61 61 56 47 42 35 26 24 23 22 24 25 23 33 35 33 36 46 51 66 70 85 86 93 97 102 98 89 98 100 96
31 32 53 82 86 81 87 84 69 82 83 74 64 57 46 36 35 34 27 22 21 21 23 23 24 26 22 34 39 49 60 64 76 82 90 97 93 95 97 94 95 102 93
37 39 45 61 76 81 92 78 68 77 75 74 62 48 36 30 31 30 22 19 18 19 20 21 24 26 27 38 45 59 67 76 79 79 96 98 86 90 86 82 81 84 86
37 31 29 42 67 74 87 78 74 77 75 70 58 43 33 29 35 29 22 21 17 17 20 22 21 25 30 39 51 63 72 76 80 90 99 93 91 95 79 67 56 57 70
30 22 14 13 18 34 54 66 70 68 74 68 56 48 36 32 31 26 22 18 17 18 19 19 20 24 32 42 53 64 70 77 83 85 96 94 97 95 77 62 62 53 51
37 27 19 16 17 22 32 45 60 75 71 62 52 39 33 31 29 25 19 16 15 16 18 15 19 26 32 39 50 62 65 70 70 74 82 96 100 93 77 68 45 29 30
32 26 18 12 11 21 32 47 65 70 65 59 47 35 33 33 24 19 17 15 12 11 13 14 21 29 33 40 48 60 65 67 73 73 81 92 94 76 56 43 27 26 38
23 17 9 7 8 13 32 45 60 66 61 54 44 35 31 28 19 14 18 15 13 13 15 21 22 31 31 37 47 57 63 65 70 61 81 96 103 81 42 30 23 26 35
17 9 3 8 10 14 29 49 56 59 50 50 38 30 24 20 11 14 17 12 12 17 17 22 27 31 34 36 43 54 56 59 70 60 69 81 96 104 83 46 24 29 29
12 8 12 14 17 15 20 34 49 41 42 43 34 17 21 15 10 15 16 19 19 30 28 25 29 27 29 32 43 46 43 46 55 52 54 60 74 84 102 77 39 35 51
8 3 7 6 12 19 23 26 42 44 49 45 25 24 45 26 35 31 18 38 31 28 35 29 26 25 19 27 40 39 38 36 38 40 47 51 64 73 77 94 93 69 66
2 7 12 14 13 2 25 35 35 35 45 47 38 51 54 42 45 40 39 23 25 29 35 34 26 19 18 31 43 41 36 35 27 27 34 44 53 62 70 76 85 88 91
7 15 23 22 17 10 5 13 24 34 42 38 42 52 52 59 46 41 35 48 46 34 30 21 25 13 20 30 40 40 34 34 25 20 29 41 52 56 62 70 75 74 72
9 18 15 21 24 23 13 7 13 24 33 34 47 45 35 44 56 48 50 28 28 33 28 20 16 11 15 24 34 36 31 29 25 24 34 40 45 49 49 55 59 65 69
Wind_Direction_850mb
194 195 196 199 203 205 210 214 212 207 209 208 203 206 197 195 199 206 220 240 239 259 289 315 309 311 306 312 321 308 305 299 304 293 294 293 286 289 282 278 283 289 278
193 196 198 200 202 207 214 215 220 214 217 220 212 199 189 198 207 226 236 225 237 279 301 309 310 300 302 310 316 317 312 312 311 306 310 309 302 302 307 280 279 278 286
193 194 197 201 206 212 216 218 220 217 221 225 222 208 206 213 218 220 225 237 260 291 301 304 300 303 297 299 306 305 305 305 306 305 302 300 288 302 299 295 294 289 278
200 198 197 204 210 216 217 221 220 220 222 222 219 212 209 219 215 213 238 234 249 272 287 297 297 309 300 292 299 302 304 302 302 301 301 297 299 300 303 297 295 293 294
202 201 201 210 215 215 214 217 218 221 218 215 217 209 203 203 211 229 243 235 242 261 276 290 300 304 293 295 303 306 304 301 296 295 298 302 302 299 299 299 303 298 295
204 207 209 210 214 216 216 214 214 216 218 216 214 213 215 212 227 236 239 235 249 267 285 303 310 311 308 306 305 303 303 305 304 300 295 294 298 301 302 301 300 297 296
203 207 207 209 212 214 214 215 214 214 216 217 216 215 219 224 230 236 242 245 260 281 299 306 306 308 309 309 311 309 307 306 302 304 301 296 294 296 295 297 297 298 296
204 209 211 211 214 214 214 215 216 214 218 222 220 216 221 228 233 237 247 251 271 293 304 307 310 308 306 308 314 319 319 313 306 302 299 297 295 296 294 292 294 296 292
206 210 212 213 216 215 216 217 216 217 218 225 223 218 221 229 235 244 245 260 278 292 304 308 310 312 314 312 313 313 315 314 310 306 303 305 306 305 300 295 292 290 288
209 207 212 213 217 218 218 218 222 221 221 224 225 225 226 228 230 235 247 261 279 298 307 314 313 313 312 319 319 317 315 312 310 307 309 308 307 304 303 298 293 289 280
207 205 209 215 218 217 219 218 223 225 228 226 221 225 235 233 233 237 246 266 290 301 310 314 313 315 320 321 316 314 313 314 312 312 307 305 306 301 298 294 287 282 272
210 205 213 212 214 219 217 218 224 227 230 228 230 232 242 240 237 237 247 270 283 289 298 311 323 324 320 321 325 320 319 318 314 316 315 312 314 308 300 291 287 279 269
179 212 212 204 214 217 214 216 226 230 227 223 229 235 238 240 240 240 252 267 277 286 300 309 321 314 323 331 330 325 314 313 313 317 320 318 313 312 307 298 285 281 276
162 186 205 211 216 217 212 215 230 228 223 223 231 241 238 233 236 244 251 268 282 288 296 305 316 317 329 331 329 322 324 323 324 325 326 323 320 313 304 296 290 284 274
149 186 202 209 216 216 210 221 228 229 225 232 234 234 225 234 242 248 261 272 276 280 296 297 317 320 324 331 320 325 329 334 329 328 332 337 320 315 304 290 285 276 268
120 127 157 204 218 223 224 231 232 238 230 234 227 215 224 243 244 247 257 268 264 278 288 306 308 324 331 326 329 327 332 337 341 340 341 342 332 328 310 294 282 279 258
149 143 142 153 216 238 244 239 242 231 227 226 220 222 233 242 242 247 255 262 267 291 301 305 307 323 326 325 326 333 333 335 338 348 350 349 345 334 319 299 285 278 262
146 154 149 169 200 229 240 236 225 217 218 216 217 221 242 234 229 245 254 267 283 297 308 292 307 316 319 319 326 339 342 343 345 346 354 358 348 341 321 306 284 270 267
159 156 147 150 204 231 240 237 221 219 216 210 219 242 244 229 232 245 261 262 273 287 293 297 305 302 312 318 328 339 345 350 351 356 1 2 356 343 331 326 305 287 286
144 153 169 215 249 253 240 240 228 218 214 224 235 243 226 221 232 259 268 277 273 300 296 300 295 294 305 318 331 339 346 350 351 360 7 14 11 4 1 2 351 336 323
130 131 155 259 291 264 256 234 228 221 238 230 231 221 219 220 246 272 266 264 267 292 279 297 289 287 303 314 330 337 348 350 357 1 359 15 15 14 28 42 34 51 15
141 175 220 235 250 256 248 247 235 246 241 220 212 223 213 220 254 278 261 276 267 272 276 284 281 279 301 320 332 337 348 350 357 5 6 15 17 21 24 44 52 68 75
141 77 47 356 249 234 238 247 239 238 213 200 201 227 210 211 271 234 260 280 255 264 268 278 266 281 297 326 341 345 352 353 3 21 23 27 20 23 31 36 48 59 68
334 357 354 359 18 275 237 246 246 251 221 227 234 212 219 256 267 235 260 263 278 272 265 276 263 268 309 335 349 355 356 356 359 9 17 24 30 26 41 41 45 50 58
308 314 318 332 3 15 30 262 244 246 245 214 215 219 237 268 243 239 272 271 260 265 279 228 249 253 312 346 358 359 357 2 4 10 22 24 23 31 39 46 49 54 54
300 308 321 338 345 342 329 304 262 254 231 242 223 229 261 246 230 252 291 269 247 245 233 231 224 273 333 356 5 6 358 3 10 17 37 37 39 37 42 45 50 55 60